Theta_e
314 324 326 324 326 328 326 320 316 318 317 311 312 313 312 312 311 309 311 308 305 309 312 310 310 310 309 310 307 303 302 300 299 300 299 299 299 299 299 299 299 299 299 298 296 294 295 295 295 295 294 294 293 292 292 292 292 292 292 292 292 292 291 291 292 293 293 293 293 292 292 292 292 292 292 293 293 293 293 293 292 292 292 292 292 292
319 325 328 329 325 323 322 317 312 313 312 310 312 313 312 312 311 309 309 309 305 308 313 311 310 310 309 309 307 304 302 301 300 300 300 299 299 299 299 299 300 299 298 297 296 294 294 295 295 295 294 293 292 292 291 291 291 292 292 292 292 291 291 292 292 292 292 292 292 291 291 292 292 292 292 292 292 292 292 292 292 292 291 291 291 291
325 327 329 325 314 311 313 312 311 311 311 311 311 312 314 312 312 312 311 310 307 308 312 312 310 309 309 309 307 304 302 302 302 302 301 301 299 299 299 299 300 299 298 297 296 295 294 294 295 295 294 293 292 291 291 291 292 292 292 292 292 291 291 291 291 292 291 291 291 291 291 291 291 292 292 292 291 291 291 291 291 291 291 291 291 291
325 330 325 311 305 310 313 311 311 310 311 313 311 312 315 313 313 316 314 312 311 309 310 310 308 307 307 308 308 306 304 304 304 303 303 302 301 300 300 300 300 300 298 297 296 295 294 294 295 294 294 293 292 291 291 291 292 292 292 292 291 291 291 291 291 291 291 291 291 291 291 291 291 291 291 291 291 291 291 291 291 291 291 291 290 290
324 322 309 304 309 313 314 313 312 311 314 317 315 313 315 314 313 314 313 311 312 313 311 308 308 310 308 307 309 306 303 303 303 303 302 301 301 301 300 300 300 300 298 298 296 295 294 294 295 294 293 292 291 291 291 291 292 292 292 291 291 291 291 291 291 291 291 291 291 291 291 291 291 291 291 291 291 291 291 291 291 291 290 290 290 290
322 312 305 310 314 312 313 315 316 314 315 321 319 314 314 315 313 312 312 311 313 316 312 307 312 316 312 309 309 307 306 304 302 300 301 301 301 300 300 299 299 299 299 298 297 295 295 295 294 294 293 292 291 291 291 291 291 291 291 291 291 291 291 291 291 291 291 291 290 290 290 290 290 291 291 291 291 291 291 291 290 290 290 290 289 289
316 307 308 316 316 314 313 315 319 316 314 319 318 315 314 313 312 311 311 311 315 316 309 307 312 314 311 311 311 310 310 308 304 301 300 300 300 299 299 299 299 299 299 298 297 295 295 295 294 294 293 292 291 291 291 291 291 291 291 291 291 291 291 291 290 290 290 290 290 290 290 290 290 290 290 290 290 290 290 290 290 290 289 289 289 289
312 308 311 315 315 316 314 317 320 314 316 321 314 312 314 311 311 311 309 309 313 311 308 308 309 309 309 310 310 309 309 308 306 304 300 298 299 300 299 299 299 299 299 298 296 295 295 294 294 293 293 292 291 291 291 291 291 291 291 291 291 291 291 290 290 290 290 290 290 290 290 290 290 290 290 290 290 290 289 289 290 289 289 289 289 289
311 314 316 314 315 314 317 323 319 312 317 320 310 308 309 308 309 308 307 309 309 307 309 310 307 309 312 310 308 306 307 309 308 306 303 299 298 299 299 299 299 299 299 298 296 295 294 294 294 293 292 292 291 291 291 290 290 291 291 291 291 291 290 290 290 290 290 289 289 289 289 289 290 289 289 289 289 289 289 289 289 289 288 289 288 288
311 312 312 315 317 315 319 319 313 313 316 311 307 309 311 311 310 308 307 309 309 309 311 311 308 312 317 315 312 308 309 311 309 307 305 300 298 298 298 299 299 299 298 297 296 295 294 294 293 293 292 292 291 291 290 290 290 291 291 291 290 290 290 289 289 290 289 289 289 289 289 289 289 289 289 289 289 289 288 288 288 288 288 288 288 288
309 306 306 310 313 312 314 309 303 307 308 304 309 313 315 314 311 309 309 310 312 314 316 313 309 312 316 316 313 313 316 316 313 310 307 301 298 298 298 298 299 298 298 296 295 295 294 294 293 293 292 292 291 291 290 290 290 290 290 290 290 290 289 289 289 289 289 289 289 289 289 289 289 288 288 288 288 288 288 288 288 288 287 287 287 287
309 308 308 308 307 306 311 309 304 304 303 306 314 316 316 318 315 313 312 311 315 321 318 310 307 309 313 314 313 314 315 313 312 313 312 306 298 297 299 299 299 298 297 296 295 295 294 293 293 292 292 291 291 290 290 290 290 290 290 289 290 289 289 289 289 289 288 288 288 288 288 288 288 288 287 287 287 287 286 286 287 287 287 287 287 287
315 313 309 306 305 305 313 314 308 308 308 309 313 316 319 321 321 321 317 314 318 320 311 304 306 309 310 312 311 311 311 309 307 307 308 305 298 297 299 298 298 297 297 296 295 294 294 293 293 292 292 291 291 290 290 290 290 289 289 289 289 289 289 289 288 288 288 288 288 288 288 288 288 287 287 287 287 286 286 285 286 286 286 286 286 286
320 317 309 308 308 306 311 314 313 315 313 309 312 318 323 323 323 324 320 317 318 317 307 301 306 311 311 312 311 310 311 308 303 301 303 302 300 301 301 299 297 297 296 296 295 294 294 293 293 292 292 291 290 290 290 290 289 289 289 289 289 289 288 288 288 288 288 288 288 288 288 287 287 287 286 286 286 285 285 285 285 285 285 285 285 286
320 319 315 313 312 308 309 311 317 320 312 307 311 316 320 323 324 323 323 321 318 317 309 302 308 315 314 314 311 306 303 300 299 300 301 301 301 302 301 298 296 296 296 295 294 294 293 293 293 292 291 291 290 290 290 290 289 289 289 289 288 288 288 288 288 288 288 288 288 287 287 287 287 286 286 285 285 284 284 284 284 284 284 284 285 286
316 319 316 308 306 306 307 306 308 316 315 308 308 312 316 319 321 319 318 317 313 313 311 306 310 314 311 310 307 302 298 296 295 296 297 299 300 300 299 297 295 295 295 295 294 294 293 293 292 292 291 291 290 290 290 290 289 289 289 288 288 288 288 288 288 288 288 287 287 287 287 287 286 286 285 285 284 284 284 284 284 284 284 284 285 286
316 319 312 304 304 304 303 303 303 310 316 309 307 313 313 311 315 317 315 311 308 311 313 311 311 311 311 310 306 302 301 299 297 295 295 296 298 298 296 296 295 295 295 294 294 293 293 292 292 291 291 291 291 290 290 290 289 289 288 288 288 288 288 288 288 288 287 287 287 287 287 286 286 285 284 284 284 283 283 283 283 283 284 284 285 286
315 317 311 306 310 304 297 300 301 301 308 312 313 312 308 305 309 314 315 312 309 311 314 313 311 311 314 312 305 301 303 302 300 297 294 293 294 295 295 295 295 294 294 294 294 293 293 292 292 291 291 291 291 290 290 289 289 289 288 288 288 288 288 288 288 287 287 287 287 287 286 286 285 285 284 283 283 283 283 283 283 283 284 284 285 286
313 315 313 304 307 304 298 303 307 301 301 307 309 306 306 310 311 310 312 314 313 313 314 314 312 312 314 314 310 307 306 306 303 297 294 294 293 292 294 294 293 294 294 294 293 293 292 292 292 291 291 291 291 290 290 289 289 289 288 288 288 288 288 288 287 287 287 287 287 286 286 285 284 284 283 283 283 282 282 282 283 283 284 284 285 285
312 314 316 304 300 304 303 306 313 308 301 301 302 301 305 310 312 311 310 313 316 315 314 315 315 313 314 317 318 313 311 309 304 297 295 295 293 293 294 293 293 293 293 294 293 292 292 292 291 291 291 291 290 290 289 289 289 288 288 288 288 288 288 287 287 287 287 286 286 286 285 285 284 283 283 282 282 282 282 282 282 283 284 284 285 285
312 313 316 307 301 304 307 308 311 312 306 304 305 305 304 304 307 310 308 309 314 314 313 314 314 314 313 316 318 315 312 309 304 299 296 294 293 294 293 293 293 293 293 293 293 292 292 292 291 291 291 290 290 290 289 289 288 288 288 288 288 288 287 287 287 287 287 286 286 285 285 284 284 283 283 282 282 282 282 282 282 283 283 284 284 284
314 314 315 311 306 307 309 307 306 308 310 308 307 308 306 304 307 310 309 308 309 311 313 314 314 312 311 313 314 314 313 308 302 300 296 293 293 293 293 294 294 293 293 293 293 292 292 292 291 291 291 290 290 289 289 288 288 288 288 288 288 287 287 287 287 287 286 286 285 285 285 284 284 283 283 282 282 282 282 282 283 283 283 283 283 283
312 314 313 313 312 308 305 303 300 302 306 306 306 307 306 306 307 310 312 310 308 308 309 311 312 312 310 312 312 311 309 304 299 297 296 294 294 293 293 294 293 293 293 293 293 292 292 292 291 291 290 290 290 289 289 288 288 288 288 288 287 287 287 287 287 286 286 285 285 285 285 284 283 283 282 282 282 282 282 282 283 282 282 282 282 282
309 314 313 314 315 309 304 302 300 300 302 305 306 306 305 306 307 309 311 312 311 309 308 309 312 312 308 307 307 303 301 298 295 294 295 294 293 293 293 293 293 293 293 293 293 292 292 291 291 291 290 290 289 289 288 288 288 288 287 287 287 287 287 287 286 286 285 285 285 285 284 284 283 283 282 282 282 282 282 282 283 282 282 282 282 281
311 315 314 313 316 314 309 307 306 304 302 304 306 305 305 305 306 308 308 309 310 310 309 310 312 312 308 304 301 299 298 299 296 293 295 294 293 293 293 292 292 292 293 293 292 292 291 291 291 290 290 290 289 289 288 288 288 287 287 287 287 287 287 286 286 286 285 285 285 284 284 283 283 282 282 282 282 281 282 282 283 282 282 282 282 281
313 316 314 312 314 314 312 313 314 309 303 302 304 304 304 304 305 307 308 308 309 309 309 309 311 312 309 305 302 299 300 300 296 293 293 294 293 293 293 292 292 292 293 293 292 292 291 291 291 290 290 289 289 289 288 288 287 287 287 287 287 286 286 286 286 285 285 284 284 284 283 283 283 282 282 282 281 281 282 282 282 282 282 281 281 281
316 316 312 312 313 312 311 312 312 309 306 306 306 304 304 304 305 306 308 309 309 309 309 309 310 311 310 308 306 304 302 300 298 296 293 292 293 293 293 293 292 292 293 292 292 292 291 291 290 290 290 289 289 288 288 287 287 287 287 287 286 286 286 286 285 285 285 284 284 284 283 283 282 282 282 281 281 281 282 282 282 282 281 281 280 279
317 315 311 311 312 311 312 311 310 310 310 309 308 305 304 303 304 306 307 308 309 310 310 310 309 310 310 309 309 309 307 302 298 296 293 292 294 293 293 292 292 291 292 292 292 291 291 291 290 290 290 289 288 288 287 287 287 287 287 286 286 286 286 285 285 285 284 284 284 283 282 282 282 282 281 280 281 281 281 282 282 281 281 281 280 278
314 313 311 312 311 310 311 311 311 311 310 310 310 309 307 304 303 304 305 307 308 309 310 310 310 310 310 310 309 309 309 305 299 297 296 295 295 293 292 291 290 291 291 291 291 291 291 291 290 290 289 289 288 287 287 287 287 287 286 286 286 286 286 285 285 285 284 284 283 282 281 281 281 280 280 280 280 281 281 281 282 281 281 280 279 278
310 312 311 311 311 311 310 310 310 310 309 310 310 310 309 307 304 303 303 305 306 308 308 309 309 310 309 309 309 308 308 305 301 299 297 295 293 292 291 291 290 291 291 291 291 291 291 291 290 289 289 288 288 287 287 287 287 286 286 286 286 286 285 285 285 284 284 283 282 281 280 280 280 279 279 280 280 281 281 281 281 281 281 280 279 277
306 312 312 311 311 312 311 310 310 309 309 309 309 309 310 309 308 305 304 304 304 306 306 306 307 308 308 307 308 307 306 304 301 298 294 293 293 292 291 290 290 291 291 291 291 291 291 290 289 289 289 288 287 287 287 287 286 286 286 286 286 286 285 285 284 284 284 283 281 280 280 279 279 279 279 280 280 280 281 281 281 281 281 280 279 277
306 310 312 311 311 312 311 311 310 309 308 308 309 309 309 309 309 309 307 306 306 306 306 306 307 307 307 307 307 306 305 305 303 298 293 292 293 292 291 290 290 291 291 291 291 291 291 290 289 289 288 287 287 286 286 287 286 286 286 286 286 286 285 285 284 284 283 282 280 279 279 278 278 278 279 279 280 280 281 281 281 281 280 279 278 276
306 308 310 310 311 311 310 310 309 308 309 309 310 309 309 308 308 309 309 308 307 307 308 308 308 308 307 308 307 307 305 304 303 298 294 293 292 291 292 292 291 291 291 291 291 291 290 290 289 289 287 287 286 286 286 286 286 286 286 286 286 285 285 284 284 283 282 281 280 279 278 278 278 278 279 279 280 280 281 281 281 280 279 279 278 277
305 307 309 309 312 311 307 306 307 308 310 312 312 312 311 310 309 309 309 309 308 308 308 308 308 308 308 308 308 308 306 303 301 300 299 298 295 293 292 292 292 292 291 291 291 291 290 289 289 288 287 286 286 286 287 286 286 286 286 286 285 285 285 284 283 283 282 280 279 278 277 277 277 278 279 279 279 280 280 280 280 279 278 277 277 276
304 305 307 309 310 308 305 306 309 311 312 312 312 312 312 311 310 309 308 308 308 308 308 308 308 307 308 307 307 306 305 302 300 300 300 300 299 297 295 292 291 291 291 291 291 290 290 289 288 287 286 286 286 286 286 286 286 286 286 286 285 285 284 284 283 282 281 280 279 277 277 277 277 278 279 279 279 280 280 280 279 278 276 275 274 273
306 304 306 309 308 306 306 308 311 312 312 311 311 309 307 307 306 306 307 308 307 306 307 306 306 307 307 307 306 304 302 300 298 298 298 299 299 298 297 295 293 292 291 292 291 290 289 289 288 287 286 286 287 286 286 286 286 286 286 285 285 285 284 284 283 282 280 279 278 277 276 276 277 278 278 279 279 279 280 279 278 276 274 273 273 272
306 306 306 308 309 309 309 310 311 311 311 311 311 309 306 306 305 306 309 309 308 308 307 305 305 305 305 305 302 298 296 296 295 296 296 297 297 296 296 296 295 293 292 291 291 290 289 288 287 286 286 287 286 286 286 286 286 286 286 285 285 285 284 283 282 281 279 278 277 276 276 276 277 278 278 278 278 279 279 279 277 275 273 272 272 272
305 307 308 309 310 310 311 311 312 312 312 312 310 308 306 304 304 306 308 308 308 307 306 306 306 304 305 304 297 292 294 297 298 297 296 296 295 294 294 294 293 292 291 291 290 289 288 287 286 286 286 286 286 286 286 286 286 286 285 285 285 284 284 283 282 280 278 277 276 276 276 276 276 277 277 277 277 278 278 278 276 274 272 271 271 272
304 306 308 309 310 311 312 312 312 313 313 312 309 304 301 300 302 306 308 307 308 308 305 305 306 305 304 302 294 292 297 300 300 300 297 295 294 293 292 292 291 291 291 290 290 289 288 287 286 286 286 286 286 286 286 286 286 285 285 285 285 284 283 282 281 279 277 276 275 275 275 276 276 277 277 277 277 277 277 277 275 274 272 271 271 271
303 304 306 307 309 310 311 311 311 312 312 310 306 300 297 298 303 308 310 309 310 310 304 302 305 305 301 296 292 295 299 301 300 300 297 295 293 292 292 292 291 291 290 289 288 288 287 286 286 286 286 286 286 286 286 286 286 285 285 285 284 284 283 281 279 277 276 275 275 275 275 275 276 276 276 276 276 276 276 276 275 274 272 271 271 271
303 304 304 306 308 309 310 311 311 311 311 307 301 297 296 300 305 309 311 310 309 307 302 299 301 301 297 293 292 296 299 298 298 297 295 294 293 291 291 291 291 290 290 289 288 287 286 286 286 286 286 286 286 286 286 286 285 285 285 284 284 283 282 280 278 276 275 275 274 275 275 275 276 276 276 276 276 276 276 275 274 273 272 271 270 269
303 304 303 305 307 307 309 311 309 311 310 303 297 296 298 304 309 309 308 306 306 304 301 299 300 299 296 294 294 296 297 296 295 295 294 293 292 291 290 290 290 289 289 288 288 287 286 286 286 286 286 286 286 286 286 286 285 285 285 284 283 282 281 279 277 275 275 274 274 274 275 275 275 276 276 275 275 276 276 275 275 273 272 270 269 268
306 305 304 305 306 306 307 308 308 311 309 300 296 297 300 305 310 308 305 304 304 303 301 299 299 299 298 296 295 295 295 294 294 294 293 292 291 291 290 290 290 289 289 288 287 286 286 286 286 286 286 286 286 286 286 286 285 285 284 283 283 281 279 277 276 275 274 274 274 274 274 275 275 276 276 275 275 275 275 275 275 274 272 270 268 267
307 307 306 306 306 307 307 307 309 311 306 299 300 303 302 304 308 308 306 305 302 301 301 300 298 299 299 298 296 294 293 293 293 293 292 291 290 290 290 289 289 289 289 288 287 286 286 286 286 286 286 286 286 286 286 285 285 284 284 283 282 280 278 276 275 274 274 273 274 274 274 274 275 275 275 275 274 275 275 275 275 275 273 270 268 267
310 310 309 308 307 308 309 308 307 306 301 299 303 306 303 303 305 305 306 305 302 300 301 299 299 300 299 298 296 294 293 293 293 292 292 291 290 290 290 289 289 289 288 287 286 286 285 285 286 286 286 286 286 286 286 285 285 284 283 282 281 279 277 275 274 274 274 273 273 274 274 274 274 274 275 275 274 274 274 274 274 274 272 270 268 267
311 309 309 310 308 307 308 307 305 302 299 298 302 304 304 303 303 302 303 303 302 302 302 301 301 301 299 296 295 293 293 293 292 292 291 291 290 290 290 289 289 288 287 287 286 285 285 286 286 286 286 286 286 285 285 285 285 284 283 281 280 277 276 275 274 273 273 273 273 273 274 274 274 274 275 275 275 274 273 274 274 273 271 270 269 268
309 306 306 309 309 308 309 309 307 305 303 300 299 301 302 302 302 302 302 302 302 302 302 302 301 301 299 297 295 294 293 293 292 291 290 290 290 290 289 289 289 288 287 286 286 285 286 286 286 286 286 286 285 285 285 285 284 283 282 280 278 276 275 274 273 273 273 273 273 273 273 274 273 273 274 275 275 274 273 273 274 273 271 269 268 268
309 306 305 307 308 308 310 311 308 304 304 302 300 300 301 301 301 301 301 301 301 301 302 301 301 299 298 297 296 295 293 292 292 291 290 290 290 290 289 289 288 287 286 285 285 286 286 286 286 286 286 286 285 285 285 284 283 282 281 279 277 275 274 273 273 273 273 273 273 273 273 273 273 273 273 274 275 275 273 273 273 273 272 269 268 267
308 307 307 307 307 307 309 310 307 304 304 304 302 300 301 302 302 300 300 300 300 299 300 300 299 298 298 298 296 294 293 292 292 292 291 291 290 290 289 289 288 287 286 285 285 286 286 286 286 286 286 285 285 285 284 284 283 281 280 278 276 275 273 273 273 272 273 273 272 272 273 273 272 272 273 273 274 274 274 272 272 272 272 271 269 268
307 309 308 308 308 308 309 309 308 307 308 307 305 303 304 303 302 300 298 298 298 298 299 299 298 297 297 298 296 294 293 292 292 291 291 291 290 290 289 289 288 287 286 286 286 286 286 286 286 286 285 285 285 284 284 283 282 280 278 277 275 274 273 273 272 272 272 272 272 272 272 272 272 272 272 272 273 273 274 274 273 272 272 272 271 270
310 311 309 308 309 310 310 309 308 308 308 309 308 307 306 304 302 300 299 298 298 298 298 298 297 295 295 295 295 294 293 293 292 291 291 291 291 290 289 289 288 287 286 286 286 286 286 286 286 285 285 285 284 284 283 282 280 279 277 276 274 273 272 272 272 272 272 272 272 272 272 271 271 271 272 272 272 272 273 274 274 274 273 272 272 272
Wind_Speed
3 3 1 4 6 7 7 6 6 5 6 3 3 4 5 5 7 6 4 5 1 2 8 8 8 12 16 15 11 18 25 25 24 23 24 28 32 35 37 37 35 32 28 26 26 23 20 17 15 14 12 9 9 8 9 11 13 15 17 19 21 22 23 26 29 32 33 34 35 35 35 36 36 36 36 36 35 35 36 36 38 40 42 44 45 47
4 2 4 8 9 7 6 6 5 4 4 2 3 4 5 5 8 9 4 5 1 3 6 5 6 11 14 16 13 12 16 19 25 26 27 31 34 36 38 39 38 33 28 28 29 26 22 19 17 15 13 10 9 8 9 11 13 15 18 20 21 23 24 27 29 31 32 33 34 34 35 36 37 37 37 37 37 37 37 38 39 41 43 45 46 47
3 3 9 8 5 5 3 4 5 3 3 2 2 2 5 4 4 8 4 4 2 2 6 6 5 10 13 17 17 12 15 22 33 36 36 37 36 38 40 40 40 35 31 32 32 29 25 21 18 17 15 11 9 8 9 11 14 16 18 20 22 23 25 27 28 29 30 31 32 33 34 36 37 37 38 39 38 38 39 40 41 43 44 46 47 48
1 6 7 4 7 8 2 2 5 2 1 4 3 2 5 4 1 4 4 5 4 2 6 8 7 8 11 17 18 14 20 26 32 37 39 38 38 41 43 43 44 41 38 36 35 31 26 22 20 18 15 11 8 7 9 11 14 17 19 21 22 24 25 26 27 28 29 31 32 33 34 35 36 37 38 39 39 39 40 41 42 43 44 46 47 48
6 5 4 7 6 6 3 1 3 2 3 4 5 6 6 6 5 6 3 5 6 4 4 7 8 6 7 13 13 7 12 19 23 27 30 34 36 37 38 41 44 43 41 39 37 33 28 24 22 19 16 10 7 7 9 12 14 17 19 21 22 23 24 26 27 28 29 31 32 33 35 35 36 37 38 40 41 41 42 42 43 43 45 46 48 48
7 3 6 6 3 4 5 3 4 6 3 5 5 9 9 8 7 5 4 6 5 4 4 6 6 6 2 7 11 5 3 10 12 14 22 30 32 32 36 40 41 41 41 39 37 34 29 25 23 20 15 10 7 7 10 12 14 17 18 20 22 23 24 26 27 28 30 31 33 34 36 37 39 40 40 41 43 44 44 45 45 45 46 47 48 49
3 1 4 6 5 4 4 5 5 7 3 4 4 6 7 4 2 2 3 3 1 4 3 4 2 8 3 4 11 8 6 11 8 9 18 26 29 34 39 40 40 42 42 39 35 33 30 27 24 20 14 9 7 8 10 12 14 16 18 19 21 23 25 26 26 27 30 31 32 34 35 36 38 40 41 42 43 44 45 46 46 46 47 47 49 49
3 2 4 5 5 4 4 5 6 8 6 3 4 4 5 4 2 3 2 0 3 3 4 3 4 7 7 6 10 7 8 14 11 10 14 20 28 36 39 38 40 44 44 40 36 33 30 27 24 20 14 9 7 8 9 11 14 16 18 20 21 24 25 25 26 27 29 31 32 33 34 35 37 39 41 42 43 44 45 47 47 48 48 47 49 50
3 4 4 5 4 3 6 6 7 10 5 5 4 5 5 4 4 4 3 2 2 3 6 4 6 5 9 5 3 2 4 12 14 14 13 17 29 34 35 37 40 43 43 40 37 33 30 27 24 20 14 9 7 7 9 11 14 17 19 20 22 23 24 25 26 27 29 30 31 33 34 36 37 38 40 42 43 44 45 47 48 48 49 48 49 50
1 3 6 7 5 6 6 3 6 9 4 3 4 4 4 4 4 3 2 1 2 2 9 7 7 4 8 4 3 1 3 10 12 12 11 16 27 31 32 36 39 41 42 40 37 33 30 27 23 19 13 9 8 7 9 11 14 17 19 20 22 23 24 24 26 28 29 29 31 32 34 36 37 39 40 42 44 45 46 48 49 50 50 50 50 51
1 1 1 4 5 5 5 2 1 4 3 3 5 4 4 4 4 3 2 3 3 3 10 9 10 8 6 3 5 4 5 8 8 8 8 11 20 26 31 37 39 41 42 40 36 32 29 26 23 18 13 9 7 7 9 11 14 17 19 20 21 22 23 25 26 28 28 29 31 32 34 36 37 39 41 43 44 45 46 48 50 51 51 51 51 51
4 1 2 3 4 5 7 4 2 2 3 4 4 4 4 4 3 4 4 4 1 6 7 5 8 9 8 6 4 6 7 7 7 8 8 9 16 26 33 37 40 42 43 41 36 33 30 27 23 18 13 10 7 7 9 12 14 16 18 20 21 22 23 25 27 27 29 30 31 33 35 36 37 38 40 42 44 45 46 48 50 51 52 53 52 52
3 4 3 2 2 6 6 4 2 4 4 4 4 4 3 4 4 3 3 0 3 7 3 1 3 5 11 10 8 10 11 11 10 10 11 10 16 27 33 37 39 41 43 41 38 34 32 28 23 18 13 10 7 7 9 12 14 16 18 20 21 22 23 25 27 28 30 31 32 33 35 36 37 38 39 41 43 44 45 47 49 51 52 53 53 53
4 4 1 1 3 8 9 5 2 2 1 5 4 4 3 1 1 4 4 2 5 6 2 3 3 4 9 8 12 16 17 17 12 12 18 16 17 25 31 36 38 41 43 42 39 36 33 29 23 18 14 10 7 8 10 12 14 16 18 20 21 22 24 25 27 29 30 31 33 34 35 36 37 38 39 41 42 44 45 46 48 50 51 51 52 53
4 6 3 5 2 7 11 6 5 5 4 4 4 4 5 4 4 4 4 4 6 6 3 3 2 4 4 3 8 11 13 14 11 14 20 19 19 22 26 32 37 40 43 41 39 36 32 28 22 18 14 10 8 8 10 12 14 17 19 20 21 23 24 26 27 29 31 32 33 34 35 36 37 38 40 41 42 43 44 46 48 49 49 49 51 52
3 7 5 1 1 6 7 3 5 6 3 2 2 4 3 4 5 3 3 4 2 6 5 3 4 6 4 4 6 5 7 7 7 11 14 15 19 20 24 32 36 40 42 41 39 36 31 26 22 18 14 10 8 9 11 13 15 17 19 20 22 23 24 26 28 30 32 33 34 34 35 36 37 39 40 41 42 43 44 45 47 49 49 49 50 51
2 6 4 2 1 2 2 1 2 2 2 2 2 3 4 4 5 2 3 2 4 3 6 3 6 7 4 6 6 4 4 5 4 7 9 13 17 21 27 32 36 40 43 42 40 36 31 26 22 18 14 10 10 10 11 13 15 18 19 21 22 23 25 27 29 31 32 33 34 35 36 37 38 39 40 42 43 44 45 46 46 48 48 48 49 50
3 4 3 2 1 1 1 1 2 2 3 5 3 5 3 2 4 3 1 3 2 4 6 3 9 11 4 6 3 3 4 10 7 6 7 10 15 21 27 32 36 40 42 41 38 34 29 26 22 19 14 11 10 11 12 13 15 17 19 21 23 24 26 28 29 31 32 33 35 36 36 37 38 39 41 42 43 45 46 47 47 47 48 48 48 50
2 3 4 1 1 2 3 1 1 2 2 5 3 3 2 3 1 2 2 2 2 3 7 5 8 11 8 6 5 3 8 12 9 7 7 8 14 22 26 29 34 38 40 40 37 33 30 26 22 18 14 12 11 11 12 14 16 17 19 21 23 25 26 28 30 31 33 34 35 37 37 38 39 40 41 42 44 45 46 47 47 47 48 48 49 50
3 2 4 1 1 2 3 1 4 2 1 2 1 2 1 3 4 3 3 3 3 4 7 6 7 12 10 6 7 9 11 12 9 9 10 11 18 25 27 30 35 39 42 41 38 34 30 26 22 18 14 13 11 11 12 14 16 17 19 21 23 25 26 28 30 31 33 35 36 37 38 39 40 41 42 43 44 45 46 47 47 48 49 49 49 50
3 2 4 2 3 1 2 5 8 9 6 3 2 2 2 1 2 1 2 2 3 4 6 3 6 16 11 5 9 11 10 11 11 11 11 14 22 28 29 33 38 41 43 41 38 34 30 25 21 18 15 12 11 11 13 15 16 17 19 21 23 25 26 28 30 32 34 35 36 38 39 40 41 42 43 44 45 46 47 47 47 48 49 49 50 50
3 3 4 2 2 4 5 3 4 8 8 7 7 7 7 6 3 2 4 3 3 5 5 3 5 17 9 5 7 9 7 9 11 12 11 15 25 28 30 35 39 42 43 41 37 33 29 25 21 18 15 12 11 11 13 15 16 18 20 21 23 24 26 29 31 33 35 36 37 39 40 41 42 43 44 45 46 47 47 48 48 48 49 50 50 50
4 2 3 4 5 6 5 3 1 2 2 3 5 5 6 6 6 6 7 5 2 5 5 4 3 16 7 6 6 6 6 8 13 14 12 16 26 29 31 35 37 40 42 39 35 32 29 25 21 18 14 11 11 11 12 14 16 18 20 21 23 24 26 29 31 33 35 37 38 39 41 42 43 44 45 46 47 47 47 48 48 48 49 49 50 50
3 2 3 5 4 2 3 4 3 4 3 3 6 5 6 8 9 8 6 3 2 5 3 4 7 16 5 4 3 2 3 6 11 17 17 17 22 27 31 34 36 39 39 36 34 31 28 25 21 18 14 11 11 11 13 15 17 17 18 20 22 25 27 29 31 34 36 37 39 40 41 43 44 45 45 46 47 47 47 48 48 49 49 49 50 50
5 2 3 4 5 4 4 3 3 3 0 5 6 5 8 12 9 3 1 1 4 7 7 4 13 17 4 3 2 2 1 5 7 16 20 18 20 27 32 34 36 38 37 36 35 32 28 25 21 18 13 11 11 11 13 15 16 16 18 20 23 25 27 29 32 34 36 38 40 41 41 43 44 45 45 46 47 47 48 49 49 49 49 49 50 50
8 3 5 7 8 8 7 4 4 3 3 3 4 7 12 14 14 8 2 4 10 9 9 9 18 19 11 2 2 2 4 6 7 12 17 19 22 27 31 34 37 39 39 39 36 33 29 25 21 17 12 11 11 12 13 15 15 16 17 19 22 25 28 30 32 35 37 38 40 41 41 42 43 44 45 46 47 47 48 49 49 49 48 48 49 50
4 2 8 11 12 13 14 10 5 6 4 5 7 12 15 16 17 12 5 8 11 7 8 17 22 22 24 18 7 4 8 9 8 9 13 19 23 26 31 35 39 40 41 40 37 33 29 25 20 16 12 11 11 12 13 14 14 16 17 20 22 25 28 31 33 35 37 38 40 41 42 43 43 44 45 46 47 47 48 48 48 47 47 47 48 49
2 4 13 15 16 18 18 15 7 7 6 9 10 13 15 15 15 13 12 17 13 3 10 24 24 20 28 29 16 11 13 11 8 9 14 22 27 29 32 34 36 37 38 38 36 33 29 25 20 15 12 11 11 12 12 13 14 16 18 20 23 26 29 32 34 36 38 39 40 41 42 42 43 44 45 46 47 47 47 47 47 47 47 47 48 48
3 9 15 13 16 19 19 18 10 6 9 10 11 17 16 13 15 17 22 24 17 11 19 27 23 23 30 28 17 15 16 10 12 18 23 26 27 28 30 30 33 36 38 38 37 33 29 24 19 15 12 11 11 11 12 12 13 15 18 20 23 26 29 32 35 37 38 40 40 41 41 42 43 44 45 46 47 47 47 47 47 47 48 48 48 48
4 10 13 9 12 18 19 18 11 8 12 12 17 26 21 13 17 21 23 23 22 22 26 27 26 30 32 24 18 23 22 15 16 22 23 22 23 26 29 31 34 38 40 40 38 33 28 23 19 15 12 11 12 11 11 12 13 15 18 20 23 27 30 33 35 37 39 40 40 41 41 42 43 44 45 46 46 47 47 48 48 47 47 48 49 49
6 8 7 4 7 16 18 13 8 9 12 14 22 31 25 16 18 21 20 19 20 23 27 28 27 28 27 22 21 26 25 17 14 15 18 22 25 29 31 32 35 39 41 40 38 33 27 23 19 15 12 11 12 11 10 11 13 15 18 21 24 28 31 33 36 37 39 40 40 41 41 42 43 44 45 46 46 47 47 48 48 48 48 49 50 49
6 4 1 4 5 14 13 5 4 5 5 12 27 34 27 18 18 20 18 17 19 22 25 24 21 20 23 22 20 18 14 12 12 13 17 22 27 31 32 33 38 40 41 40 37 32 27 23 19 14 12 12 11 10 10 11 13 16 19 22 25 29 31 34 36 37 39 39 39 40 40 41 43 44 44 45 46 47 47 48 49 49 50 50 50 49
6 5 3 4 6 12 6 4 5 3 1 12 22 24 22 20 20 20 19 20 23 22 19 18 17 20 22 20 17 15 10 10 12 15 19 23 28 33 35 38 41 42 42 41 38 32 27 22 18 14 13 12 11 9 10 11 13 16 20 23 26 29 32 34 36 37 38 39 39 39 40 40 42 43 44 45 46 47 48 49 50 50 50 50 50 49
7 8 6 5 6 8 3 6 6 2 8 13 8 6 13 18 19 21 22 24 26 21 17 18 19 22 23 18 17 18 14 12 17 23 27 28 30 34 36 39 41 41 41 40 35 30 26 21 17 14 13 12 10 9 10 11 13 16 20 23 26 29 32 34 36 37 38 38 39 39 39 40 41 43 44 45 46 47 48 49 51 51 51 51 51 50
9 9 5 4 4 3 3 5 1 9 14 11 2 4 9 12 13 16 18 23 25 21 18 20 21 25 26 21 20 22 19 18 21 25 29 31 33 36 37 39 39 39 39 38 34 29 25 20 17 15 14 12 9 9 9 10 13 17 20 23 26 29 32 34 36 37 37 38 38 38 39 40 41 42 44 45 46 47 48 50 51 51 52 51 50 49
10 8 4 4 3 1 2 5 10 12 11 14 10 5 4 2 3 5 10 21 24 18 16 20 23 25 25 23 24 24 18 15 16 21 27 31 34 36 38 39 40 40 40 38 34 29 24 19 17 15 13 11 9 8 9 11 14 17 20 23 26 29 32 34 35 37 37 37 37 37 38 39 41 42 44 45 45 47 48 50 51 52 51 50 49 47
10 8 5 6 6 6 7 10 12 10 14 23 20 7 6 6 7 7 8 20 21 13 14 19 21 22 22 21 18 12 7 5 7 15 26 31 33 35 37 36 38 40 39 35 31 26 21 19 17 15 13 10 8 8 9 11 14 17 20 23 26 29 32 34 35 36 36 36 36 36 37 38 40 42 43 44 45 46 48 50 51 51 49 48 48 46
12 10 9 9 8 8 9 9 10 8 13 21 14 3 5 8 9 8 5 14 19 10 13 15 16 19 21 15 6 9 9 4 6 11 23 30 32 32 32 32 34 37 36 33 29 25 21 19 17 15 12 10 8 8 9 12 15 17 20 23 26 29 32 33 35 35 35 35 35 36 37 37 39 40 42 43 44 45 47 49 50 49 47 45 45 44
12 9 9 9 8 9 9 9 10 10 15 17 6 3 5 10 11 7 1 11 18 10 14 15 16 17 15 7 10 11 7 5 8 11 19 28 31 31 31 31 33 34 33 30 26 23 20 19 17 15 12 10 8 8 9 12 15 18 21 23 26 29 32 33 34 34 34 34 34 35 36 36 37 38 40 42 43 44 46 47 49 48 46 43 41 41
10 7 7 8 10 12 12 11 9 7 11 10 4 5 8 15 15 6 4 13 10 5 14 16 13 14 10 10 13 9 6 9 10 10 16 25 29 30 31 33 36 35 33 29 24 21 20 19 17 15 11 9 7 8 10 13 15 18 21 24 27 29 31 33 33 33 33 33 33 33 34 35 36 36 38 40 41 42 43 45 48 48 45 43 41 39
5 5 7 9 13 15 14 12 8 6 9 6 8 12 14 13 8 2 11 13 3 6 12 16 13 14 14 16 14 11 14 16 10 5 13 25 30 31 32 34 35 33 30 27 24 22 21 20 17 14 11 9 8 9 11 13 15 18 21 24 27 29 31 31 31 31 31 31 32 32 32 33 34 35 36 38 39 41 42 43 46 47 45 44 42 40
4 3 5 8 10 11 12 11 6 8 10 8 15 18 17 9 3 11 10 4 5 9 12 16 18 18 20 24 24 20 19 17 11 8 17 28 34 36 36 35 34 31 28 26 24 23 22 20 16 13 11 9 8 9 11 13 16 19 21 24 26 28 29 30 30 29 30 30 30 31 31 32 33 34 36 36 37 39 41 42 45 45 44 43 42 41
7 4 4 7 7 5 6 7 6 10 9 19 21 11 9 8 14 17 8 3 9 15 16 18 22 23 24 28 29 23 17 15 14 15 22 32 36 37 37 36 34 32 29 27 25 24 22 19 15 13 10 9 8 9 11 13 16 19 21 24 26 27 28 28 28 28 28 29 29 30 31 31 32 33 35 36 36 38 40 42 44 45 44 43 43 43
7 7 6 7 8 5 5 10 11 9 10 29 25 10 15 28 35 28 15 10 13 17 19 21 23 25 27 28 28 26 20 18 19 22 28 35 38 38 38 36 34 32 29 26 25 24 21 18 15 12 10 9 9 10 11 13 16 19 21 23 25 26 26 25 25 26 26 27 28 29 30 31 32 33 34 35 35 37 39 42 43 45 44 43 43 44
13 15 8 5 8 9 8 12 10 4 14 33 34 23 25 41 47 33 19 18 19 21 23 23 23 26 28 28 28 27 25 23 24 27 32 37 40 40 38 37 34 31 28 26 25 23 20 17 15 12 10 9 9 10 12 14 17 19 21 23 24 24 24 24 23 24 25 26 28 29 30 31 31 32 33 34 35 35 37 41 43 44 44 43 43 44
10 10 4 1 5 8 11 14 8 4 12 30 41 35 26 32 37 32 26 25 26 26 26 25 26 26 27 29 29 28 28 28 28 31 33 37 41 41 38 36 33 30 28 27 26 23 20 17 15 12 11 10 9 10 12 15 17 19 21 22 23 22 23 22 22 23 24 26 27 28 29 31 32 32 32 33 35 34 34 37 41 43 42 42 42 44
4 8 6 4 5 6 11 17 15 13 18 27 33 33 30 30 32 33 34 34 31 28 27 27 26 26 28 31 31 31 31 32 32 34 36 39 41 41 38 36 34 31 29 27 24 22 20 17 15 12 11 10 9 10 12 15 17 19 20 21 21 20 20 21 21 22 23 25 26 27 29 31 32 33 32 33 35 36 35 34 37 40 41 41 42 44
7 11 9 8 10 10 14 18 11 10 22 29 28 28 33 37 37 35 37 38 35 30 27 26 26 27 29 31 33 33 34 34 35 37 39 40 41 40 38 36 34 32 29 27 24 22 20 17 15 13 11 10 10 10 12 14 17 18 19 19 19 18 18 18 19 21 22 24 25 27 28 29 31 32 33 33 33 35 37 37 37 38 39 39 40 42
8 10 9 9 12 12 17 20 8 0 13 24 28 34 43 46 44 40 38 36 34 30 27 26 28 30 30 31 33 35 36 36 37 38 39 40 40 39 38 36 34 31 29 27 25 23 20 18 16 14 12 10 10 10 12 14 16 17 17 17 16 16 16 16 17 19 21 23 24 25 27 28 29 31 32 33 32 33 34 35 36 37 38 37 36 36
8 10 8 7 9 10 15 22 19 10 11 19 28 42 53 53 43 38 37 35 34 34 33 32 31 31 29 30 34 37 38 39 39 39 38 37 37 37 38 36 33 31 29 27 25 24 21 19 17 14 12 11 10 10 12 14 15 16 15 15 14 14 14 15 16 18 20 21 23 25 26 27 28 29 31 33 34 34 33 32 33 34 36 37 36 35
15 17 13 10 13 18 22 27 24 15 13 24 36 43 49 49 41 37 39 42 42 41 40 37 36 34 32 33 36 38 39 40 41 39 37 35 35 36 36 34 32 31 29 28 26 24 22 19 17 15 12 11 9 10 11 13 14 14 13 13 12 13 13 14 16 17 19 21 22 24 26 27 28 29 30 31 33 36 36 36 34 32 33 35 35 36
Wind_Direction
73 48 327 253 246 237 230 190 173 175 165 189 208 223 242 243 271 266 242 280 244 220 264 243 236 261 268 272 251 210 206 212 218 219 217 212 209 208 207 207 207 209 210 206 205 206 209 214 222 236 249 273 298 313 328 337 341 343 345 343 341 341 339 338 336 336 336 335 334 334 334 333 332 330 327 327 329 328 329 330 331 331 332 332 333 334
70 63 256 234 223 215 211 177 145 135 154 191 204 242 266 222 257 275 273 305 283 183 266 248 229 259 263 271 266 207 196 215 216 215 218 214 212 212 210 209 209 209 207 203 204 207 210 213 221 234 245 265 290 311 327 335 340 341 342 341 341 341 339 338 337 337 336 335 334 334 333 331 329 329 328 328 330 330 330 331 331 332 332 333 333 334
26 257 251 234 188 138 110 124 134 152 164 176 176 218 276 237 263 290 301 331 354 169 268 272 246 261 265 270 267 217 198 222 220 217 220 215 211 212 212 210 209 207 204 202 204 207 208 213 220 230 241 260 285 309 325 332 336 337 340 341 340 340 338 337 336 335 335 333 332 330 328 327 326 327 326 327 329 329 330 331 332 332 332 333 332 332
291 250 244 190 139 131 96 72 121 117 180 184 177 191 264 264 279 284 298 335 327 235 265 287 273 259 260 265 268 240 219 230 230 226 225 221 216 216 215 214 211 207 203 202 204 205 206 210 218 228 238 258 285 306 321 329 334 337 340 340 339 338 336 335 334 333 332 330 328 326 324 324 323 324 324 325 326 328 328 329 330 331 331 330 330 331
242 245 158 118 117 145 165 316 147 180 276 242 202 203 242 259 231 231 284 334 321 299 306 321 299 261 241 250 266 264 228 238 238 230 228 226 224 222 219 217 214 209 206 205 203 203 205 209 217 225 234 256 282 300 320 330 334 338 341 340 338 336 334 333 333 331 330 327 324 322 321 321 321 321 322 322 323 325 326 326 327 328 329 329 329 330
261 246 143 127 90 129 161 235 208 183 249 296 230 210 227 245 248 260 325 353 347 325 346 12 327 275 246 250 261 277 251 249 239 226 229 227 223 222 220 218 214 210 210 210 207 205 206 210 216 223 233 254 277 297 320 331 335 338 339 339 336 333 332 332 332 330 328 325 323 323 323 323 323 322 323 324 324 324 325 325 326 327 328 328 328 328
259 93 114 133 134 136 166 242 236 171 147 304 246 200 206 213 236 286 356 14 311 272 292 58 328 272 275 247 257 263 264 259 240 224 232 227 220 219 220 219 213 210 210 210 208 207 207 210 215 221 231 250 273 299 322 331 334 336 337 336 333 332 332 331 330 329 326 324 323 323 323 322 323 322 322 323 324 324 324 324 325 326 327 327 326 326
161 104 61 101 122 139 181 242 228 158 138 247 230 140 127 122 148 178 112 205 238 277 288 173 169 271 273 239 257 270 266 269 259 241 238 226 221 221 221 219 214 212 210 207 205 204 206 211 214 220 231 248 273 302 322 329 332 333 333 334 332 331 331 329 328 327 325 324 323 322 321 320 321 321 320 321 321 322 323 322 323 324 325 325 325 325
150 164 190 153 132 182 206 228 193 159 161 243 207 123 105 109 139 154 134 243 280 11 291 229 149 263 275 238 273 343 251 266 264 248 239 223 222 222 219 218 216 213 210 207 205 203 206 211 215 221 231 250 274 302 319 326 329 329 330 331 332 330 329 328 327 326 324 323 322 321 320 319 320 320 319 319 320 321 322 322 322 323 323 323 323 323
140 185 198 158 161 215 217 232 180 169 196 216 144 101 63 71 81 84 107 169 39 14 266 245 153 223 275 220 164 42 237 252 258 252 243 226 223 221 217 217 216 212 208 206 206 206 210 212 216 221 230 250 272 299 316 323 326 326 327 329 331 330 328 327 326 324 323 322 322 321 320 320 320 320 319 319 319 321 321 321 321 322 322 323 323 323
334 58 174 168 191 193 149 92 123 160 167 122 92 52 17 29 49 43 61 77 50 266 259 240 177 188 276 245 177 193 216 221 236 252 250 229 221 216 216 217 214 209 206 204 206 208 211 213 215 221 230 246 268 296 313 320 323 324 326 327 329 330 328 326 325 324 323 323 322 321 321 321 321 321 320 320 320 321 322 321 321 321 322 322 323 323
344 49 241 231 192 137 103 81 44 46 91 97 72 47 7 334 14 18 358 49 70 253 264 244 180 187 240 246 211 233 241 222 221 241 242 219 210 210 214 216 212 207 204 202 204 206 207 210 213 218 228 241 263 294 310 315 319 322 324 326 328 329 327 325 325 324 323 323 322 321 321 321 321 321 321 320 321 322 322 321 321 321 321 322 322 322
309 227 253 324 196 165 122 81 22 356 36 91 88 73 46 333 354 344 307 47 227 246 257 118 139 216 243 244 242 251 257 248 231 232 243 227 208 209 213 214 210 205 203 202 203 204 205 209 212 217 226 238 260 291 304 311 316 320 323 325 327 327 326 325 324 323 323 322 322 321 321 321 321 321 321 320 320 321 322 321 321 321 321 322 322 321
292 294 287 126 251 192 164 148 197 262 139 149 146 125 130 104 350 280 269 268 268 266 238 122 113 263 271 258 233 232 242 251 251 244 249 244 223 219 219 214 208 204 203 203 203 205 206 209 212 217 224 236 260 287 300 309 315 318 321 323 325 326 325 324 324 323 322 322 322 321 321 321 321 320 320 321 321 321 321 321 320 320 321 321 321 320
243 296 218 179 212 182 181 183 164 144 141 176 161 136 151 151 179 238 240 242 282 299 252 164 142 237 257 251 222 229 246 261 272 258 251 249 238 232 224 212 206 203 201 203 204 205 208 209 211 216 223 237 260 283 297 307 314 317 319 322 324 326 326 325 324 323 322 321 322 321 321 321 321 321 320 320 321 320 320 320 319 319 320 320 319 319
209 266 249 228 80 160 182 194 132 116 115 198 132 115 176 180 173 212 229 210 293 319 275 203 210 227 234 260 228 231 270 277 282 265 248 239 231 222 214 207 204 202 200 201 204 205 206 207 210 217 223 237 260 280 296 306 313 315 318 321 325 326 326 325 324 323 322 322 322 321 321 321 321 321 321 320 321 320 320 319 319 319 319 319 319 318
201 272 281 11 5 142 154 222 142 140 177 164 139 184 218 179 137 151 273 333 65 296 274 248 259 273 315 286 228 179 260 268 278 268 237 222 214 206 207 205 202 201 199 201 203 203 203 205 210 216 223 239 260 281 296 306 312 314 318 322 325 326 325 325 324 323 323 322 322 321 321 322 322 322 322 321 321 321 320 319 319 319 318 319 319 318
193 269 270 123 201 246 52 7 8 26 130 131 178 216 200 132 103 111 272 336 42 254 270 276 273 280 293 284 274 109 251 252 245 246 234 217 206 205 209 206 202 200 199 200 201 201 203 207 212 216 225 244 262 282 296 305 310 314 320 323 325 326 325 325 324 323 323 322 322 322 322 323 323 323 322 322 321 321 320 319 320 319 319 319 319 318
153 259 280 109 211 281 18 46 326 350 87 131 191 227 133 151 183 111 152 240 216 240 269 280 286 275 242 239 274 231 223 237 234 219 220 215 208 211 211 205 201 199 198 199 199 201 204 208 211 217 228 245 263 283 296 304 310 316 321 322 324 325 325 325 324 323 323 323 322 323 324 325 324 324 323 322 322 321 320 320 321 320 320 321 320 319
123 208 274 334 281 308 25 172 191 214 33 89 279 322 27 176 178 163 168 191 181 218 266 292 311 283 252 206 230 230 214 220 218 205 212 214 212 213 208 201 199 197 197 198 199 200 204 207 212 220 231 246 265 285 296 303 311 317 321 322 323 324 324 324 324 323 323 323 324 324 325 325 325 325 324 323 322 321 320 322 322 322 322 321 321 319
106 191 245 329 333 257 195 206 193 185 172 168 220 233 230 190 139 227 217 167 174 216 254 274 288 279 270 171 203 226 211 207 204 201 211 216 216 215 207 202 200 198 198 199 199 201 204 208 214 221 232 247 265 284 295 304 312 318 320 321 322 324 324 324 324 324 323 324 325 325 325 326 326 326 324 323 323 322 322 323 324 324 323 321 321 319
152 189 204 172 231 217 219 235 206 196 184 180 198 201 201 188 154 248 253 217 192 223 230 173 262 275 274 144 198 217 194 198 201 200 208 215 217 214 209 207 203 199 199 199 200 203 205 209 215 221 232 247 266 284 297 305 312 318 320 321 322 324 325 325 325 325 325 326 327 326 327 327 327 326 325 324 323 322 324 325 325 325 324 321 321 319
131 131 195 219 223 219 247 297 327 256 247 225 222 196 186 185 171 200 233 225 183 237 236 105 271 269 257 142 192 203 182 202 199 196 206 215 216 212 209 208 204 201 201 199 200 205 208 211 215 222 233 248 269 286 298 305 312 317 319 320 322 324 325 326 325 326 327 327 327 327 328 328 327 326 325 324 323 323 326 327 327 326 324 321 320 318
109 121 213 258 298 353 331 337 10 23 28 260 246 193 181 207 203 204 218 184 156 226 200 102 257 261 257 119 195 179 178 221 205 200 208 214 214 212 209 207 205 203 201 200 203 206 207 210 215 222 233 249 269 286 296 305 312 316 318 320 322 324 325 326 326 327 328 328 328 329 329 329 328 326 325 324 324 326 328 329 328 327 325 322 319 317
174 173 179 245 295 317 329 345 335 333 267 232 241 200 206 222 216 209 70 143 245 224 162 161 251 255 263 66 22 24 235 244 227 213 214 213 209 209 209 207 204 202 199 200 203 204 206 210 215 222 233 250 270 286 297 306 312 314 317 321 323 325 326 327 327 328 329 329 329 330 330 329 327 326 325 325 325 328 329 330 329 327 325 322 319 317
177 189 173 207 237 243 250 237 211 223 209 223 243 217 217 218 211 212 204 215 241 226 174 204 249 260 269 249 95 1 264 248 246 229 222 221 216 211 209 207 204 201 200 201 202 203 206 211 215 222 234 252 271 288 297 303 308 312 318 322 324 326 326 327 329 329 330 330 330 330 329 328 327 326 326 326 327 330 331 330 329 326 325 322 320 320
151 205 200 213 221 227 243 241 182 135 157 201 219 218 217 215 212 212 213 228 236 231 217 233 245 264 273 264 246 252 250 238 235 233 224 221 220 216 212 208 204 202 201 201 201 203 208 210 214 222 235 253 272 287 293 299 305 312 320 323 325 326 326 328 330 330 330 330 330 330 329 329 328 327 327 328 330 332 332 330 329 326 325 323 322 322
103 230 221 224 227 234 249 249 194 145 200 219 217 223 220 213 211 205 213 227 228 222 249 247 248 260 267 266 265 263 258 247 224 220 222 222 220 216 212 208 203 200 199 200 202 205 207 209 213 222 236 254 272 283 288 296 305 313 321 325 326 328 328 330 331 331 331 331 330 330 330 329 328 328 329 331 333 333 332 331 329 328 327 326 324 323
132 235 233 225 234 244 251 252 231 198 239 246 242 246 233 203 201 208 218 227 224 225 247 254 259 261 262 267 274 272 266 250 228 232 232 229 222 213 207 203 199 197 198 200 203 206 207 209 214 221 235 253 268 277 283 294 307 315 322 326 327 329 330 331 332 332 332 331 331 330 330 329 329 330 332 333 334 333 333 332 331 330 329 328 326 324
155 240 240 218 239 251 248 250 247 239 257 264 260 258 248 212 208 216 223 229 230 235 248 259 264 263 265 271 275 272 270 259 243 240 232 222 214 205 202 200 197 198 199 201 203 205 207 209 213 221 236 251 261 270 281 294 307 317 323 327 329 330 331 332 332 333 332 331 331 330 330 330 331 332 333 334 334 334 334 334 333 332 331 329 328 326
196 236 240 184 238 257 252 249 242 237 249 259 262 261 254 236 230 231 230 231 235 242 248 254 260 263 268 271 269 271 273 261 244 232 217 212 209 202 201 199 198 200 201 202 204 205 205 208 212 221 236 247 256 266 281 297 309 319 326 329 331 332 333 333 333 332 331 330 330 330 331 332 333 333 334 334 335 336 336 336 335 335 334 332 330 328
200 227 242 132 225 257 257 243 216 230 249 258 259 259 253 242 238 238 236 228 229 240 247 250 254 259 265 268 269 270 263 239 230 219 208 210 208 204 202 200 200 202 202 202 204 203 203 206 211 221 233 242 252 263 282 300 313 323 328 331 333 334 334 334 332 331 330 330 331 331 333 333 333 333 333 335 337 338 338 338 337 337 336 334 332 330
181 200 209 162 223 259 263 110 115 92 352 259 255 250 244 240 238 241 245 238 231 232 239 246 247 250 259 267 272 270 246 219 224 219 210 210 208 207 207 205 205 205 204 203 202 201 202 205 210 220 229 237 248 264 286 304 318 327 330 332 334 334 334 333 332 331 330 331 332 332 334 334 333 334 335 336 338 340 340 340 339 339 338 335 334 331
189 205 207 173 215 251 221 102 92 136 239 253 250 207 217 224 226 232 239 241 237 231 230 240 250 257 262 263 264 264 253 234 232 228 224 220 215 212 211 211 209 206 204 202 200 200 201 203 208 217 223 232 246 267 290 308 322 329 331 333 334 334 334 333 331 330 330 331 333 334 334 335 334 335 335 337 340 342 342 341 340 340 340 337 335 334
190 200 199 191 218 237 135 100 174 229 236 258 303 145 199 210 213 226 238 245 245 237 234 241 248 254 258 257 256 259 258 249 240 234 231 228 223 220 216 212 209 205 202 199 197 198 199 201 207 212 217 230 247 269 292 311 323 328 330 332 334 334 333 332 330 330 330 332 334 335 336 336 336 336 336 338 342 344 345 343 341 342 341 338 335 333
182 182 190 196 182 198 169 187 229 248 278 293 279 203 168 179 185 217 255 259 253 239 230 237 241 246 253 257 257 257 254 247 239 232 230 228 226 225 220 214 210 206 202 198 196 196 197 199 206 210 216 230 248 271 295 313 322 327 330 331 333 333 331 330 329 329 331 334 336 337 338 337 337 337 338 340 344 346 347 345 343 343 341 338 335 333
180 172 199 209 193 218 228 224 243 277 299 285 269 228 172 193 183 178 244 268 264 232 212 230 241 245 249 255 254 239 206 211 249 238 228 224 222 222 221 219 214 207 199 195 193 194 195 198 203 208 217 231 249 271 297 316 322 326 329 331 332 332 329 328 329 330 333 336 337 339 339 339 339 339 340 343 346 348 348 346 344 343 341 338 336 334
198 190 203 212 210 222 231 242 254 256 260 262 259 203 178 188 172 159 202 270 273 236 196 220 238 241 248 252 215 146 144 190 272 250 227 219 215 214 213 212 208 198 191 189 189 190 194 197 202 208 218 231 251 276 301 316 321 325 328 330 330 329 328 328 329 331 335 337 339 341 341 341 341 341 342 345 349 350 349 346 344 343 342 339 336 333
216 218 215 217 225 224 223 237 237 231 250 256 239 136 155 147 134 110 101 271 272 236 190 207 228 238 246 220 156 139 136 211 253 253 230 215 208 205 203 197 191 187 186 188 190 191 194 196 200 208 218 229 252 282 304 314 320 324 327 329 329 328 327 328 330 334 337 339 341 343 343 342 343 344 345 347 350 351 350 347 344 344 343 341 338 336
211 220 217 218 227 224 222 233 235 239 258 253 178 146 164 146 129 95 282 264 264 177 177 197 217 235 225 162 154 162 179 210 237 255 229 207 197 196 195 187 182 182 183 185 186 189 194 197 202 209 217 228 254 285 303 313 319 323 326 327 327 327 327 329 332 336 338 340 343 344 344 344 344 346 348 349 351 352 351 349 346 345 344 342 342 340
207 213 209 215 225 224 225 234 241 254 255 224 140 147 154 134 113 215 248 249 226 140 182 194 205 219 196 162 164 193 211 218 233 239 201 189 182 181 182 181 182 183 183 185 187 190 195 199 203 207 215 232 259 286 301 311 319 323 325 326 325 326 327 330 335 338 340 342 345 345 345 346 346 348 350 352 352 352 352 351 349 347 347 345 344 343
192 194 203 219 226 225 230 238 250 263 247 174 141 156 157 136 214 234 230 222 170 183 197 196 202 206 190 183 192 204 212 217 219 195 181 179 177 174 174 177 180 180 183 186 189 192 195 198 201 205 218 242 265 286 302 313 318 321 323 324 324 326 329 333 337 340 341 343 345 346 347 348 349 351 352 354 354 353 353 354 351 350 350 349 346 344
176 171 196 211 211 214 238 232 235 260 216 144 135 156 170 184 234 236 225 206 211 212 207 200 203 202 195 196 201 204 206 204 198 188 178 177 178 176 176 180 182 183 186 188 189 193 195 197 201 209 225 249 269 287 302 312 317 320 322 323 324 327 330 335 340 341 342 344 346 348 349 349 353 355 354 354 356 356 355 355 354 353 354 352 348 346
167 185 207 210 196 179 204 209 219 251 177 148 152 189 205 210 227 234 226 225 227 218 209 205 206 207 206 205 203 200 199 193 186 182 176 175 179 178 179 182 184 186 189 189 190 194 194 195 204 215 231 250 269 287 301 311 316 318 320 321 324 328 333 338 342 342 343 346 348 350 350 351 356 359 356 356 358 359 358 358 357 356 357 356 352 349
194 199 204 215 203 191 212 223 220 212 164 173 192 215 208 211 224 230 224 227 228 221 215 210 208 211 211 208 201 195 194 192 187 183 180 179 181 181 182 184 186 189 190 190 192 193 191 197 209 218 232 250 269 287 300 310 314 316 319 322 325 330 335 341 344 343 345 349 351 351 351 353 359 1 359 358 1 3 2 0 359 360 1 359 355 352
211 208 191 198 213 216 247 252 234 167 176 197 213 225 220 217 224 226 226 230 229 226 223 217 215 216 211 205 199 194 194 195 189 184 184 183 182 183 186 187 187 189 191 191 192 191 192 201 212 220 233 251 269 287 299 308 311 314 318 322 327 334 339 342 344 346 348 351 353 353 353 354 359 2 2 1 2 7 9 6 2 3 4 2 359 356
225 208 199 208 200 197 241 248 231 216 220 217 218 225 229 230 230 228 228 230 230 228 226 221 220 219 212 205 202 199 198 195 188 183 183 183 183 185 188 189 188 190 192 191 191 192 197 206 215 222 234 250 267 285 298 305 309 313 319 324 331 337 341 342 345 348 350 352 354 355 355 357 359 0 3 4 3 5 11 12 9 8 7 6 3 358
194 188 192 219 218 212 239 249 236 224 239 236 225 224 230 232 232 231 230 230 230 230 226 220 218 214 208 206 206 203 198 192 188 185 183 183 186 188 189 191 192 190 190 190 192 196 201 208 217 225 236 250 266 284 296 302 308 313 319 326 334 338 341 344 347 350 352 354 356 357 357 0 1 359 1 6 7 7 9 12 15 14 13 12 6 357
143 168 178 205 219 229 250 253 243 283 269 251 229 223 231 233 230 229 229 227 225 223 218 214 214 213 211 209 207 202 196 190 189 188 185 185 189 191 191 193 193 191 191 191 194 199 204 209 217 226 235 248 266 282 293 300 306 312 320 329 335 338 343 347 350 353 355 356 357 359 360 2 3 1 1 4 8 11 12 13 16 17 16 18 15 3
145 199 194 186 211 226 240 240 227 214 250 249 229 224 231 233 228 224 223 221 218 218 214 208 206 208 211 213 210 203 196 191 189 189 188 188 192 194 194 193 192 192 192 193 196 201 206 210 217 225 234 246 263 280 291 298 305 313 323 331 334 338 345 351 353 356 359 359 359 360 1 3 4 3 4 4 5 8 11 15 20 21 19 20 20 16
195 211 197 188 218 228 230 233 228 212 226 246 243 236 233 230 224 218 219 219 218 217 214 209 203 201 202 207 208 205 200 193 190 189 190 192 195 197 196 195 195 194 194 197 200 203 206 211 217 224 233 246 261 277 289 296 304 315 325 330 334 342 348 353 357 359 1 3 2 1 3 4 4 4 5 7 7 6 6 8 14 20 24 25 23 21